Weather History for KSLH - June, 2013

Change the Weather History Date:

Saturday, June 15, 2013

  Actual Average (KPLN) Record (KPLN)
Temperature  
Mean Temperature 59 °F -  
Max Temperature 75 °F 74 °F 90 °F (1954)
Min Temperature 43 °F 49 °F 33 °F (1948)
Degree Days  
Heating Degree Days 6    
Growing Degree Days 9 (Base 50)    
Moisture  
Dew Point 46 °F    
Average Humidity 65    
Maximum Humidity 92    
Minimum Humidity 30    
Precipitation  
Precipitation 0.00 in - - ()
Sea Level Pressure  
Sea Level Pressure 29.97 in    
Wind  
Wind Speed 1 mph (SSW)    
Max Wind Speed 8 mph    
Max Gust Speed -    
Visibility 10 miles    
Events Rain    
Averages and records for this station are not official NWS values.
T = Trace of Precipitation, MM = Missing Value Source: NWS Daily Summary

Daily Weather History Graph

Daily Weather History Graph

Search for Another Location

Airport or City:

Trip Planner

Search our weather history database for the weather conditions in past years. The results will help you decide how hot, cold, wet, or windy it might be!

Date:

Astronomy

Jun. 15, 2013 Rise Set
Actual Time 5:48 AM EDT 9:29 PM EDT
Civil Twilight 5:09 AM EDT 10:07 PM EDT
Nautical Twilight 4:18 AM EDT 10:58 PM EDT
Astronomical Twilight 3:09 AM EDT 12:08 AM EDT
Moon 12:40 PM EDT (6/15) 12:47 AM EDT (6/15)
Length of Visible Light 16h 57m
Length of Day
15h 41m
Waxing Crescent, 39% of the Moon is Illuminated
Jun 15
Waxing Crescent
Jun 16
First Quarter
Jun 23
Full
Jun 30
Last Quarter
Jul 8
New

Hourly Weather History & Observations

Time (EDT) Temp. Windchill Dew Point Humidity Pressure Visibility Wind Dir Wind Speed Gust Speed Precip Events Conditions
12:15 AM 49.1 °F - 45.0 °F 86% 30.04 in 10.0 mi Calm Calm - N/A   Clear
12:36 AM 47.3 °F - 44.2 °F 89% 30.03 in 10.0 mi Calm Calm - N/A   Clear
12:55 AM 48.2 °F - 45.9 °F 92% 30.03 in 10.0 mi Calm Calm - N/A   Clear
1:15 AM 46.2 °F - 44.1 °F 92% 30.03 in 10.0 mi Calm Calm - N/A   Clear
1:32 AM 46.0 °F - 43.3 °F 90% 30.03 in 10.0 mi Calm Calm - N/A   Clear
1:55 AM 45.5 °F - 42.4 °F 89% 30.02 in 10.0 mi Calm Calm - N/A   Clear
2:15 AM 45.3 °F 44.0 °F 41.5 °F 87% 30.03 in 10.0 mi WSW 3.5 mph - N/A   Clear
2:35 AM 44.2 °F - 41.5 °F 90% 30.02 in 10.0 mi Calm Calm - N/A   Clear
2:55 AM 43.3 °F - 40.6 °F 90% 30.02 in 10.0 mi Calm Calm - N/A   Clear
3:16 AM 45.7 °F 43.4 °F 43.2 °F 91% 30.03 in 10.0 mi SW 4.6 mph - N/A   Clear
3:35 AM 45.9 °F - 42.6 °F 88% 30.03 in 10.0 mi Calm Calm - N/A   Clear
3:56 AM 44.8 °F - 41.7 °F 89% 30.02 in 10.0 mi Calm Calm - N/A   Clear
4:15 AM 44.8 °F - 42.1 °F 90% 30.02 in 10.0 mi Calm Calm - N/A   Clear
4:35 AM 45.0 °F - 41.9 °F 89% 30.03 in 10.0 mi Calm Calm - N/A   Clear
4:55 AM 45.7 °F - 43.0 °F 90% 30.03 in 10.0 mi Calm Calm - N/A   Clear
5:15 AM 45.5 °F - 42.6 °F 90% 30.02 in 10.0 mi Calm Calm - N/A   Clear
5:36 AM 46.8 °F - 44.2 °F 91% 30.03 in 10.0 mi Calm Calm - N/A   Clear
5:55 AM 47.7 °F - 45.3 °F 92% 30.02 in 10.0 mi Calm Calm - N/A   Clear
6:15 AM 48.2 °F - 45.3 °F 90% 30.02 in 10.0 mi Calm Calm - N/A   Clear
6:35 AM 50.2 °F - 45.9 °F 85% 30.03 in 10.0 mi Calm Calm - N/A   Clear
6:55 AM 50.9 °F - 47.1 °F 87% 30.03 in 10.0 mi Calm Calm - N/A   Clear
7:16 AM 51.8 °F - 47.8 °F 86% 30.04 in 10.0 mi Calm Calm - N/A   Clear
7:35 AM 52.3 °F - 48.6 °F 87% 30.03 in 10.0 mi Calm Calm - N/A   Clear
7:55 AM 54.0 °F - 47.1 °F 78% 30.04 in 10.0 mi SSW 3.5 mph - N/A   Clear
8:15 AM 55.2 °F - 47.1 °F 74% 30.04 in 10.0 mi Calm Calm - N/A   Scattered Clouds
8:35 AM 56.3 °F - 45.5 °F 67% 30.04 in 10.0 mi Calm Calm - N/A   Mostly Cloudy
8:56 AM 57.0 °F - 48.4 °F 73% 30.04 in 10.0 mi Calm Calm - N/A   Scattered Clouds
9:15 AM 57.7 °F - 46.6 °F 66% 30.04 in 10.0 mi Calm Calm - N/A   Clear
9:35 AM 58.5 °F - 47.5 °F 67% 30.04 in 10.0 mi Calm Calm - N/A   Scattered Clouds
9:55 AM 59.5 °F - 44.6 °F 58% 30.03 in 10.0 mi Calm Calm - N/A   Mostly Cloudy
10:16 AM 59.9 °F - 47.3 °F 63% 30.03 in 10.0 mi Calm Calm - N/A   Overcast
10:35 AM 61.0 °F - 47.8 °F 62% 30.01 in 10.0 mi Calm Calm - N/A   Scattered Clouds
10:55 AM 62.8 °F - 47.3 °F 57% 30.00 in 10.0 mi Calm Calm - N/A   Scattered Clouds
11:16 AM 63.5 °F - 47.5 °F 56% 30.00 in 10.0 mi Calm Calm - N/A   Scattered Clouds
11:35 AM 64.9 °F - 47.8 °F 54% 29.99 in 10.0 mi Calm Calm - N/A   Clear
11:55 AM 66.9 °F - 48.2 °F 51% 29.98 in 10.0 mi SE 3.5 mph - N/A   Clear
12:16 PM 67.1 °F - 46.4 °F 47% 29.98 in 10.0 mi Calm Calm - N/A   Clear
12:35 PM 69.4 °F - 46.8 °F 44% 29.98 in 10.0 mi SE 3.5 mph - N/A   Scattered Clouds
12:55 PM 69.1 °F - 44.2 °F 41% 29.97 in 10.0 mi SSE 6.9 mph - N/A   Scattered Clouds
1:16 PM 68.0 °F - 45.1 °F 44% 29.97 in 10.0 mi SSE 4.6 mph - N/A   Scattered Clouds
1:35 PM 69.8 °F - 37.9 °F 31% 29.97 in 10.0 mi South 3.5 mph - N/A   Mostly Cloudy
1:56 PM 71.6 °F - 38.1 °F 30% 29.97 in 10.0 mi SSW 4.6 mph - N/A   Scattered Clouds
2:15 PM 71.6 °F - 38.7 °F 30% 29.97 in 10.0 mi SW 5.8 mph - N/A   Clear
2:35 PM 72.7 °F - 40.5 °F 31% 29.96 in 10.0 mi WSW 5.8 mph - N/A   Clear
2:55 PM 71.8 °F - 39.9 °F 31% 29.96 in 10.0 mi SSW 5.8 mph - N/A   Scattered Clouds
3:15 PM 72.5 °F - 42.6 °F 34% 29.95 in 10.0 mi SSW 5.8 mph - N/A   Mostly Cloudy
3:36 PM 72.9 °F - 42.4 °F 33% 29.95 in 10.0 mi SW 6.9 mph - N/A   Mostly Cloudy
3:55 PM 74.1 °F - 43.9 °F 34% 29.94 in 10.0 mi SW 4.6 mph - N/A   Scattered Clouds
4:15 PM 75.0 °F - 42.1 °F 31% 29.93 in 10.0 mi South 5.8 mph - N/A   Mostly Cloudy
4:36 PM 75.2 °F - 43.2 °F 32% 29.94 in 10.0 mi SSW 8.1 mph - N/A   Mostly Cloudy
4:55 PM 75.4 °F - 43.2 °F 32% 29.94 in 10.0 mi WSW 6.9 mph - N/A   Mostly Cloudy
5:15 PM 69.8 °F - 46.6 °F 43% 29.93 in 10.0 mi North 8.1 mph - N/A   Mostly Cloudy
5:36 PM 68.2 °F - 45.3 °F 44% 29.94 in 10.0 mi NNW 3.5 mph - N/A   Mostly Cloudy
5:55 PM 65.8 °F - 46.2 °F 49% 29.93 in 10.0 mi North 4.6 mph - N/A   Overcast
6:15 PM 63.5 °F - 48.7 °F 59% 29.93 in 10.0 mi Calm Calm - N/A   Overcast
6:36 PM 63.9 °F - 49.8 °F 60% 29.91 in 10.0 mi Calm Calm - N/A   Overcast
6:55 PM 64.8 °F - 50.2 °F 59% 29.90 in 10.0 mi East 3.5 mph - N/A   Overcast
7:15 PM 63.5 °F - 50.7 °F 63% 29.90 in 10.0 mi Calm Calm - N/A   Overcast
7:36 PM 63.9 °F - 50.0 °F 61% 29.89 in 10.0 mi Calm Calm - N/A   Overcast
7:55 PM 64.4 °F - 51.3 °F 62% 29.88 in 10.0 mi Calm Calm - N/A   Overcast
8:15 PM 64.9 °F - 50.7 °F 60% 29.87 in 10.0 mi Calm Calm - N/A   Overcast
8:36 PM 65.3 °F - 49.5 °F 57% 29.86 in 10.0 mi Calm Calm - N/A   Overcast
8:55 PM 65.5 °F - 48.6 °F 54% 29.86 in 10.0 mi Calm Calm - N/A   Overcast
9:15 PM 64.4 °F - 50.7 °F 61% 29.86 in 10.0 mi Calm Calm - N/A   Overcast
9:36 PM 63.5 °F - 48.7 °F 59% 29.86 in 10.0 mi Calm Calm - N/A Rain Light Rain
9:55 PM 62.1 °F - 50.9 °F 67% 29.85 in 10.0 mi Calm Calm - N/A Rain Light Rain
10:15 PM 61.9 °F - 52.3 °F 71% 29.84 in 10.0 mi Calm Calm - N/A   Overcast
10:35 PM 62.2 °F - 51.8 °F 69% 29.85 in 10.0 mi Calm Calm - N/A Rain Rain
10:55 PM 61.7 °F - 52.2 °F 71% 29.85 in 10.0 mi Calm Calm - N/A Rain Light Rain
11:16 PM 60.4 °F - 53.4 °F 78% 29.84 in 10.0 mi North 3.5 mph - N/A   Drizzle
11:35 PM 59.9 °F - 52.5 °F 77% 29.85 in 10.0 mi North 4.6 mph - N/A   Overcast
11:55 PM 59.5 °F - 49.6 °F 70% 29.85 in 10.0 mi NNE 3.5 mph - N/A   Overcast